TimePDT,TemperatureF,Dew PointF,Humidity,Sea Level PressureIn,VisibilityMPH,Wind Direction,Wind SpeedMPH,Gust SpeedMPH,PrecipitationIn,Events,Conditions,WindDirDegrees,DateUTC
12:56 AM,66.0,27.0,23,29.94,10.0,SW,8.1,-,N/A,,Clear,220,2011-10-21 07:56:00
1:56 AM,64.9,25.0,22,29.94,10.0,SSW,6.9,-,N/A,,Clear,210,2011-10-21 08:56:00
2:56 AM,64.0,27.0,25,29.94,10.0,SW,4.6,-,N/A,,Clear,230,2011-10-21 09:56:00
3:56 AM,63.0,26.1,25,29.95,10.0,SW,5.8,-,N/A,,Clear,220,2011-10-21 10:56:00
4:56 AM,61.0,28.0,29,29.97,10.0,SSW,8.1,-,N/A,,Clear,200,2011-10-21 11:56:00
5:56 AM,62.1,28.9,29,29.99,10.0,SW,6.9,-,N/A,,Clear,230,2011-10-21 12:56:00
6:56 AM,63.0,28.0,27,30.01,10.0,SSW,6.9,-,N/A,,Clear,210,2011-10-21 13:56:00
7:56 AM,64.0,27.0,25,30.04,10.0,SSW,6.9,-,N/A,,Clear,210,2011-10-21 14:56:00
8:56 AM,69.1,27.0,21,30.05,10.0,South,5.8,-,N/A,,Clear,180,2011-10-21 15:56:00
9:56 AM,71.1,27.0,19,30.06,10.0,South,8.1,-,N/A,,Clear,170,2011-10-21 16:56:00
10:56 AM,75.9,27.0,16,30.06,10.0,SSE,4.6,-,N/A,,Clear,160,2011-10-21 17:56:00
11:56 AM,78.1,28.0,16,30.05,10.0,South,3.5,-,N/A,,Clear,170,2011-10-21 18:56:00
12:56 PM,80.1,26.1,14,30.03,10.0,Calm,Calm,-,N/A,,Clear,0,2011-10-21 19:56:00
1:56 PM,82.9,26.1,13,30.00,10.0,Calm,Calm,-,N/A,,Clear,0,2011-10-21 20:56:00
2:56 PM,84.0,27.0,13,29.99,10.0,Variable,3.5,-,N/A,,Clear,0,2011-10-21 21:56:00
3:56 PM,84.9,27.0,12,29.98,10.0,Calm,Calm,-,N/A,,Clear,0,2011-10-21 22:56:00
4:56 PM,84.0,26.1,12,29.97,10.0,East,3.5,-,N/A,,Clear,90,2011-10-21 23:56:00
5:56 PM,82.4,28.4,14,30.03,10.0,SSE,5.8,-,N/A,,Clear,150,2011-10-22 00:56:00
6:56 PM,80.1,28.0,15,29.99,10.0,South,4.6,-,N/A,,Clear,170,2011-10-22 01:56:00
7:56 PM,77.0,28.0,17,30.01,10.0,SSW,8.1,-,N/A,,Clear,200,2011-10-22 02:56:00
8:56 PM,71.1,30.9,23,30.02,10.0,WSW,6.9,-,N/A,,Clear,240,2011-10-22 03:56:00
9:56 PM,72.0,28.9,20,30.02,10.0,SW,6.9,-,N/A,,Clear,230,2011-10-22 04:56:00
10:56 PM,70.0,28.9,22,30.01,10.0,SSW,8.1,-,N/A,,Clear,200,2011-10-22 05:56:00
11:56 PM,66.9,28.9,24,30.02,10.0,South,6.9,-,N/A,,Clear,190,2011-10-22 06:56:00